Tracking 28125 objects as of 2-Oct-2023
HD Live streaming from Space Station
objects crossing your sky now

THORAD DELTA 1 DEB

Track THORAD DELTA 1 DEB now!
10-day predictions


NORAD ID: 42625
Int'l Code: 1974-089GS
Perigee: 1,495.3 km
Apogee: 1,500.0 km
Inclination: 101.9 °
Period: 115.8 minutes
Semi major axis: 7868 km
RCS: Unknown
Launch date: November 15, 1974
Source: United States (US)
Launch site: AIR FORCE WESTERN TEST RANGE (AFWTR)

Note: This is SATELLITE DEBRIS
Your satellite tracking list
Your tracking list is empty




NASA's NSSDC Master Catalog

Two Line Element Set (TLE):
1 42625U 74089GS  23273.36727503  .00000144  00000-0  13415-2 0  9992
2 42625 101.9088 242.6838 0003001 286.6827 232.4757 12.43814140448772
Source of the keplerian elements: AFSPC